Location: Baia Mare
(47.6567°N, 23.5850°E)
Time: 21:14:04
(UTC+02:00)

ISS - Pass Details

Date: 01 October 2018
Orbit: 401 x 409 km, 51.6° (Epoch: 18 November)

Event Time Altitude Azimuth Distance (km) Brightness Sun altitude
Rises 19:54:23 0° 272° (W) 2,345 2.5 -9.1°
Reaches altitude 10° 19:56:33 10° 279° (W) 1,483 0.7 -9.4°
Maximum altitude 19:59:44 42° 352° (N) 601 -2.9 -10.0°
Enters shadow 20:02:36 12° 64° (ENE) 1,358 -1.7 -10.4°
